Tracking 25995 objects as of 19-Aug-2022
HD Live streaming from Space Station
objects crossing your sky now

THOR ABLESTAR DEB

Track THOR ABLESTAR DEB now!
10-day predictions


NORAD ID: 48815
Int'l Code: 1961-015MT
Perigee: 773.2 km
Apogee: 813.3 km
Inclination: 65.8 °
Period: 100.6 minutes
Semi major axis: 7164 km
RCS: Unknown
Launch date: June 29, 1961
Source: United States (US)
Launch site: AIR FORCE EASTERN TEST RANGE (AFETR)

Note: This is SATELLITE DEBRIS
aabbcc
Your satellite tracking list
Your tracking list is empty




NASA's NSSDC Master Catalog

Two Line Element Set (TLE):
1 48815U 61015MT  22212.15736444  .00002020  00000-0  78757-3 0  9993
2 48815  65.8150  88.2629 0028011 145.4437 214.8482 14.31690118955910
Source of the keplerian elements: AFSPC